When you browse on this site, cookies collect data to enhance your experience and personalize the content and advertising you see.
Visit our Privacy Policy to learn more. By continuing to use the site, you agree to this use of cookies and data.
  • In Hungary
  • List of Countries
  • For 7 days
  • Water Temperature
  • Satellite Maps
  • Weather Map
  • News
  • Weather Widgets
  • user-avatar
    Login

    Hourly Weather Kodiak

    Today, 17 February, Sunday

    Time Temperature Precipitation Wind Pressure Humidity
    00:00 -10°C° 0.3 mm 6 mps 763 mmHg 91%
    01:00 -9°C° 0.3 mm 6 mps 762 mmHg 92%
    02:00 -10°C° 0 mm 6 mps 763 mmHg 91%
    03:00 -10°C° 1.4 mm 6 mps 762 mmHg 92%
    04:00 -9°C° 1.4 mm 6 mps 761 mmHg 94%
    05:00 -9°C° 1.4 mm 6 mps 760 mmHg 96%
    06:00 -9°C° 2 mm 6 mps 759 mmHg 96%
    07:00 -8°C° 2 mm 6 mps 758 mmHg 96%
    08:00 -8°C° 2 mm 7 mps 757 mmHg 96%
    09:00 -6°C° 1.9 mm 6 mps 756 mmHg 96%
    10:00 -5°C° 1.9 mm 6 mps 755 mmHg 95%
    11:00 -5°C° 1.9 mm 6 mps 754 mmHg 95%
    12:00 -5°C° 1.9 mm 5 mps 754 mmHg 96%
    13:00 -3°C° 1.9 mm 4 mps 754 mmHg 97%
    14:00 -2°C° 1.9 mm 3 mps 754 mmHg 97%
    15:00 -2°C° 0.7 mm 3 mps 754 mmHg 97%
    16:00 -2°C° 0.7 mm 2 mps 754 mmHg 97%
    17:00 -2°C° 0.7 mm 2 mps 754 mmHg 96%
    18:00 -2°C° 0 mm 3 mps 755 mmHg 94%
    19:00 -3°C° 0 mm 4 mps 755 mmHg 91%
    20:00 -4°C° 0 mm 5 mps 756 mmHg 88%
    21:00 -5°C° 0 mm 5 mps 756 mmHg 86%
    22:00 -5°C° 0 mm 5 mps 757 mmHg 83%
    23:00 -5°C° 0 mm 6 mps 757 mmHg 81%

    Tomorrow, 18 February, Monday

    Time Temperature Precipitation Wind Pressure Humidity
    00:00 -5°C° 0 mm 6 mps 757 mmHg 80%
    01:00 -5°C° 0 mm 5 mps 757 mmHg 79%
    02:00 -5°C° 0 mm 5 mps 757 mmHg 78%
    03:00 -4°C° 0 mm 4 mps 757 mmHg 79%
    04:00 -4°C° 0 mm 4 mps 756 mmHg 80%
    05:00 -5°C° 0 mm 3 mps 755 mmHg 80%
    06:00 -4°C° 0.3 mm 3 mps 755 mmHg 84%
    07:00 -3°C° 0.3 mm 2 mps 754 mmHg 88%
    08:00 -3°C° 0.3 mm 2 mps 753 mmHg 92%
    09:00 -3°C° 0.6 mm 2 mps 753 mmHg 93%
    10:00 -2°C° 0.6 mm 2 mps 752 mmHg 94%
    11:00 -2°C° 0.6 mm 3 mps 752 mmHg 95%
    12:00 -2°C° 0.2 mm 3 mps 752 mmHg 96%
    13:00 -1°C° 0.2 mm 2 mps 751 mmHg 96%
    14:00 -1°C° 0.2 mm 2 mps 751 mmHg 96%
    15:00 -2°C° 0.1 mm 2 mps 751 mmHg 96%
    16:00 0°C° 0.1 mm 1 mps 751 mmHg 96%
    17:00 0°C° 0.1 mm 1 mps 751 mmHg 96%
    18:00 -1°C° 0 mm 1 mps 751 mmHg 95%
    19:00 -1°C° 0 mm 1 mps 751 mmHg 94%
    20:00 -2°C° 0 mm 1 mps 751 mmHg 93%
    21:00 -3°C° 0 mm 1 mps 752 mmHg 92%
    22:00 -3°C° 0 mm 1 mps 753 mmHg 91%
    23:00 -4°C° 0 mm 1 mps 753 mmHg 90%

    Day after tomorrow, 19 February, Tuesday

    Time Temperature Precipitation Wind Pressure Humidity
    00:00 -4°C° 0 mm 1 mps 755 mmHg 90%
    01:00 -4°C° 0 mm 1 mps 756 mmHg 90%
    02:00 -4°C° 0 mm 1 mps 757 mmHg 90%
    03:00 -4°C° 0 mm 1 mps 758 mmHg 90%
    04:00 -4°C° 0 mm 1 mps 758 mmHg 90%
    05:00 -4°C° 0 mm 1 mps 759 mmHg 90%
    06:00 -4°C° 0 mm 1 mps 760 mmHg 90%
    07:00 -4°C° 0 mm 1 mps 761 mmHg 90%
    08:00 -6°C° 0 mm 2 mps 762 mmHg 90%
    09:00 -5°C° 0 mm 2 mps 763 mmHg 89%
    10:00 -4°C° 0 mm 2 mps 763 mmHg 88%
    11:00 -2°C° 0 mm 1 mps 764 mmHg 88%
    12:00 -3°C° 0 mm 2 mps 764 mmHg 88%
    13:00 -3°C° 0 mm 2 mps 764 mmHg 87%
    14:00 -3°C° 0 mm 2 mps 764 mmHg 87%
    15:00 -4°C° 0 mm 2 mps 765 mmHg 89%
    16:00 -6°C° 0 mm 3 mps 765 mmHg 91%
    17:00 -7°C° 0 mm 3 mps 765 mmHg 92%
    18:00 -8°C° 0 mm 3 mps 765 mmHg 90%
    19:00 -9°C° 0 mm 3 mps 765 mmHg 88%
    20:00 -10°C° 0 mm 3 mps 765 mmHg 86%
    21:00 -12°C° 0 mm 3 mps 765 mmHg 84%
    22:00 -12°C° 0 mm 3 mps 765 mmHg 83%
    23:00 -13°C° 0 mm 3 mps 765 mmHg 81%

    20 February, Wednesday

    Time Temperature Precipitation Wind Pressure Humidity
    00:00 -13°C° 0 mm 3 mps 765 mmHg 81%
    01:00 -14°C° 0 mm 3 mps 765 mmHg 81%
    02:00 -14°C° 0 mm 3 mps 764 mmHg 80%
    03:00 -14°C° 0 mm 3 mps 764 mmHg 80%
    04:00 -14°C° 0 mm 3 mps 763 mmHg 80%
    05:00 -14°C° 0 mm 3 mps 763 mmHg 80%
    06:00 -14°C° 0 mm 3 mps 763 mmHg 80%
    07:00 -13°C° 0 mm 3 mps 762 mmHg 80%
    08:00 -13°C° 0 mm 3 mps 762 mmHg 80%
    09:00 -12°C° 0 mm 3 mps 762 mmHg 81%
    10:00 -12°C° 0 mm 3 mps 762 mmHg 82%
    11:00 -10°C° 0 mm 3 mps 762 mmHg 83%
    12:00 -10°C° 0.2 mm 3 mps 762 mmHg 86%
    13:00 -9°C° 0.2 mm 3 mps 761 mmHg 90%
    14:00 -9°C° 0.2 mm 3 mps 761 mmHg 93%
    15:00 -9°C° 0.1 mm 3 mps 761 mmHg 94%
    16:00 -9°C° 0.1 mm 3 mps 760 mmHg 94%
    17:00 -10°C° 0.1 mm 3 mps 760 mmHg 95%
    18:00 -10°C° 0 mm 3 mps 760 mmHg 95%
    19:00 -10°C° 0 mm 3 mps 760 mmHg 94%
    20:00 -10°C° 0 mm 3 mps 759 mmHg 94%
    21:00 -10°C° 0 mm 3 mps 759 mmHg 93%
    22:00 -9°C° 0 mm 3 mps 759 mmHg 93%
    23:00 -9°C° 0 mm 3 mps 758 mmHg 93%

    21 February, Thursday

    Time Temperature Precipitation Wind Pressure Humidity
    00:00 -9°C° 0.1 mm 3 mps 758 mmHg 92%
    01:00 -9°C° 0.1 mm 3 mps 757 mmHg 92%
    02:00 -9°C° 0.1 mm 3 mps 757 mmHg 92%
    03:00 -9°C° 0.1 mm 3 mps 756 mmHg 93%
    04:00 -9°C° 0.1 mm 3 mps 755 mmHg 93%
    05:00 -9°C° 0.1 mm 2 mps 755 mmHg 94%
    06:00 -9°C° 0 mm 2 mps 755 mmHg 94%
    07:00 -8°C° 0 mm 1 mps 754 mmHg 94%
    08:00 -8°C° 0 mm 1 mps 754 mmHg 94%
    09:00 -7°C° 0 mm 1 mps 754 mmHg 94%
    10:00 -6°C° 0 mm 1 mps 754 mmHg 94%
    11:00 -4°C° 0 mm 1 mps 754 mmHg 94%
    12:00 -4°C° 0 mm 1 mps 754 mmHg 94%
    13:00 -4°C° 0 mm 1 mps 754 mmHg 93%
    14:00 -3°C° 0 mm 1 mps 754 mmHg 93%
    15:00 -4°C° 0 mm 1 mps 754 mmHg 92%
    16:00 -4°C° 0 mm 1 mps 754 mmHg 91%
    17:00 -6°C° 0 mm 1 mps 754 mmHg 90%
    18:00 -6°C° 0 mm 1 mps 754 mmHg 87%
    19:00 -7°C° 0 mm 1 mps 754 mmHg 84%
    20:00 -9°C° 0 mm 2 mps 754 mmHg 80%
    21:00 -10°C° 0 mm 2 mps 754 mmHg 80%
    22:00 -10°C° 0 mm 1 mps 755 mmHg 80%
    23:00 -11°C° 0 mm 1 mps 755 mmHg 79%

    22 February, Friday

    Time Temperature Precipitation Wind Pressure Humidity
    00:00 -11°C° 0 mm 1 mps 755 mmHg 80%
    01:00 -12°C° 0 mm 1 mps 755 mmHg 80%
    02:00 -12°C° 0 mm 1 mps 755 mmHg 81%
    03:00 -13°C° 0 mm 1 mps 755 mmHg 82%
    04:00 -13°C° 0 mm 1 mps 756 mmHg 83%
    05:00 -13°C° 0 mm 1 mps 756 mmHg 84%
    06:00 -14°C° 0 mm 1 mps 756 mmHg 84%
    07:00 -14°C° 0 mm 1 mps 756 mmHg 84%
    08:00 -14°C° 0 mm 1 mps 757 mmHg 84%
    09:00 -12°C° 0 mm 1 mps 757 mmHg 83%
    10:00 -11°C° 0 mm 1 mps 757 mmHg 81%
    11:00 -9°C° 0 mm 1 mps 758 mmHg 80%
    12:00 -9°C° 0 mm 1 mps 758 mmHg 80%
    13:00 -8°C° 0 mm 1 mps 758 mmHg 80%
    14:00 -8°C° 0 mm 1 mps 759 mmHg 80%
    15:00 -9°C° 0 mm 1 mps 760 mmHg 81%
    16:00 -11°C° 0 mm 1 mps 760 mmHg 83%
    17:00 -12°C° 0 mm 1 mps 761 mmHg 84%
    18:00 -13°C° 0 mm 1 mps 762 mmHg 83%
    19:00 -13°C° 0 mm 1 mps 763 mmHg 83%
    20:00 -14°C° 0 mm 0 mps 763 mmHg 82%
    21:00 -14°C° 0 mm 1 mps 764 mmHg 82%
    22:00 -14°C° 0 mm 1 mps 765 mmHg 82%
    23:00 -14°C° 0 mm 1 mps 765 mmHg 82%
    Show more